| time (UTC) | temp F | wind direction | speed MPH | gust MPH | rain 1hr in | rain 24hr in | rain mn in | humidity % | barometer mb |
| 20260507051553 | 52 | 229 | 7.0 | 11.0 | 0.00 | 0.00 | 0.00 | 89 | 1020.6 |
| 20260507051049 | 52 | 216 | 5.0 | 8.0 | 0.00 | 0.00 | 0.00 | 88 | 1020.5 |
| 20260507050550 | 52 | 215 | 4.0 | 7.0 | 0.00 | 0.00 | 0.00 | 88 | 1020.6 |
| 20260507050053 | 53 | 175 | 4.0 | 7.0 | 0.00 | 0.00 | 0.00 | 87 | 1020.6 |
| 20260507045549 | 53 | 218 | 4.0 | 8.0 | 0.00 | 0.00 | 0.00 | 87 | 1020.6 |
| 20260507045049 | 53 | 208 | 3.0 | 9.0 | 0.00 | 0.00 | 0.00 | 87 | 1020.6 |
| 20260507044556 | 53 | 245 | 3.0 | 9.0 | 0.00 | 0.00 | 0.00 | 87 | 1020.7 |
| 20260507044048 | 53 | 211 | 4.0 | 9.0 | 0.00 | 0.00 | 0.00 | 86 | 1020.7 |
| 20260507043548 | 53 | 243 | 3.0 | 7.0 | 0.00 | 0.00 | 0.00 | 86 | 1020.6 |
| 20260507043053 | 53 | 185 | 2.0 | 9.0 | 0.00 | 0.00 | 0.00 | 85 | 1020.6 |
| 20260507042550 | 53 | 247 | 3.0 | 9.0 | 0.00 | 0.00 | 0.00 | 85 | 1020.6 |
| 20260507042049 | 53 | 229 | 5.0 | 9.0 | 0.00 | 0.00 | 0.00 | 85 | 1020.5 |
| 20260507041553 | 53 | 249 | 2.0 | 6.0 | 0.00 | 0.00 | 0.00 | 85 | 1020.6 |
| 20260507041050 | 53 | 223 | 3.0 | 6.0 | 0.00 | 0.00 | 0.00 | 85 | 1020.5 |
| 20260507040549 | 53 | 226 | 2.0 | 6.0 | 0.00 | 0.00 | 0.00 | 85 | 1020.5 |
| 20260507040055 | 53 | 221 | 2.0 | 4.0 | 0.00 | 0.00 | 0.00 | 85 | 1020.5 |
| 20260507035549 | 53 | 235 | 2.0 | 6.0 | 0.00 | 0.00 | 0.00 | 85 | 1020.5 |
| 20260507035049 | 53 | 242 | 2.0 | 6.0 | 0.00 | 0.00 | 0.00 | 85 | 1020.4 |
| 20260507034552 | 53 | 227 | 3.0 | 10.0 | 0.00 | 0.00 | 0.00 | 85 | 1020.4 |
| 20260507034049 | 53 | 189 | 3.0 | 10.0 | 0.00 | 0.00 | 0.00 | 85 | 1020.3 |
| 20260507033549 | 54 | 238 | 4.0 | 10.0 | 0.00 | 0.00 | 0.00 | 84 | 1020.3 |
| 20260507033050 | 54 | 254 | 4.0 | 10.0 | 0.00 | 0.00 | 0.00 | 84 | 1020.3 |
| 20260507032548 | 54 | 246 | 5.0 | 11.0 | 0.00 | 0.00 | 0.00 | 84 | 1020.2 |
| 20260507032048 | 54 | 258 | 5.0 | 11.0 | 0.00 | 0.00 | 0.00 | 83 | 1020.2 |
| 20260507031551 | 54 | 276 | 5.0 | 11.0 | 0.00 | 0.00 | 0.00 | 83 | 1020.1 |
| 20260507031051 | 54 | 260 | 4.0 | 12.0 | 0.00 | 0.00 | 0.00 | 83 | 1020.2 |
| 20260507030549 | 54 | 239 | 6.0 | 12.0 | 0.00 | 0.00 | 0.00 | 83 | 1020.0 |
| 20260507030057 | 54 | 239 | 5.0 | 14.0 | 0.00 | 0.00 | 0.00 | 83 | 1020.0 |
| 20260507025549 | 54 | 223 | 4.0 | 14.0 | 0.00 | 0.00 | 0.00 | 82 | 1020.0 |
| 20260507025048 | 54 | 274 | 8.0 | 14.0 | 0.00 | 0.00 | 0.00 | 82 | 1019.9 |
| 20260507024612 | 55 | 205 | 6.0 | 11.0 | 0.00 | 0.00 | 0.00 | 82 | 1019.9 |
| 20260507024053 | 55 | 231 | 4.0 | 13.0 | 0.00 | 0.00 | 0.00 | 82 | 1019.9 |
| 20260507023552 | 55 | 240 | 6.0 | 13.0 | 0.00 | 0.00 | 0.00 | 81 | 1019.9 |
| 20260507023054 | 55 | 247 | 9.0 | 13.0 | 0.00 | 0.00 | 0.00 | 81 | 1019.9 |
| 20260507022549 | 55 | 268 | 5.0 | 10.0 | 0.00 | 0.00 | 0.00 | 81 | 1019.9 |
| 20260507022049 | 55 | 228 | 4.0 | 12.0 | 0.00 | 0.00 | 0.00 | 81 | 1019.8 |
| 20260507021612 | 55 | 250 | 6.0 | 12.0 | 0.00 | 0.00 | 0.00 | 80 | 1019.8 |
| 20260507021049 | 55 | 229 | 4.0 | 11.0 | 0.00 | 0.00 | 0.00 | 80 | 1019.7 |
| 20260507020549 | 55 | 211 | 5.0 | 9.0 | 0.00 | 0.00 | 0.00 | 80 | 1019.7 |
| 20260507015548 | 55 | 214 | 5.0 | 11.0 | 0.00 | 0.00 | 0.00 | 81 | 1019.9 |
| 20260507015052 | 55 | 214 | 5.0 | 12.0 | 0.00 | 0.00 | 0.00 | 80 | 1019.8 |
| 20260507014611 | 55 | 214 | 5.0 | 12.0 | 0.00 | 0.00 | 0.00 | 80 | 1019.8 |
| 20260507014047 | 56 | 202 | 7.0 | 12.0 | 0.00 | 0.00 | 0.00 | 80 | 1019.9 |
| 20260507013548 | 56 | 235 | 7.0 | 12.0 | 0.00 | 0.00 | 0.00 | 80 | 1019.8 |
| 20260507013055 | 56 | 234 | 5.0 | 9.0 | 0.00 | 0.00 | 0.00 | 80 | 1019.8 |
| 20260507012550 | 56 | 244 | 5.0 | 11.0 | 0.00 | 0.00 | 0.00 | 80 | 1019.9 |
| 20260507012049 | 56 | 215 | 5.0 | 11.0 | 0.00 | 0.00 | 0.00 | 80 | 1019.9 |
| 20260507011551 | 56 | 262 | 5.0 | 12.0 | 0.00 | 0.00 | 0.00 | 80 | 1019.8 |
| 20260507011048 | 56 | 231 | 6.0 | 16.0 | 0.00 | 0.00 | 0.00 | 80 | 1019.9 |
| 20260507010552 | 56 | 250 | 7.0 | 16.0 | 0.00 | 0.00 | 0.00 | 80 | 1019.8 |
| 20260507010105 | 56 | 259 | 7.0 | 16.0 | 0.00 | 0.00 | 0.00 | 80 | 1019.9 |
| 20260507005549 | 56 | 218 | 6.0 | 12.0 | 0.00 | 0.00 | 0.00 | 80 | 1019.9 |
| 20260507005050 | 56 | 251 | 6.0 | 13.0 | 0.00 | 0.00 | 0.00 | 80 | 1019.9 |
| 20260507004554 | 56 | 251 | 5.0 | 13.0 | 0.00 | 0.00 | 0.00 | 80 | 1020.0 |
| 20260507004049 | 56 | 222 | 5.0 | 12.0 | 0.00 | 0.00 | 0.00 | 80 | 1020.0 |
| 20260507003549 | 56 | 272 | 6.0 | 13.0 | 0.00 | 0.00 | 0.00 | 80 | 1020.0 |
| 20260507003052 | 56 | 249 | 5.0 | 13.0 | 0.00 | 0.00 | 0.00 | 80 | 1019.9 |
| 20260507002549 | 56 | 244 | 9.0 | 13.0 | 0.00 | 0.00 | 0.00 | 80 | 1020.0 |
| 20260507002050 | 56 | 247 | 6.0 | 13.0 | 0.00 | 0.00 | 0.00 | 80 | 1019.9 |
| 20260507001553 | 56 | 203 | 7.0 | 13.0 | 0.00 | 0.00 | 0.00 | 80 | 1020.0 |
| 20260507001048 | 56 | 241 | 8.0 | 13.0 | 0.00 | 0.00 | 0.00 | 79 | 1020.0 |
| 20260507000548 | 56 | 247 | 5.0 | 11.0 | 0.00 | 0.00 | 0.00 | 80 | 1019.9 |
| 20260507000053 | 56 | 258 | 6.0 | 13.0 | 0.00 | 0.00 | 0.00 | 80 | 1020.0 |
| 20260506235549 | 56 | 241 | 7.0 | 16.0 | 0.00 | 0.00 | 0.00 | 80 | 1020.0 |
| 20260506235049 | 56 | 236 | 7.0 | 16.0 | 0.00 | 0.00 | 0.00 | 80 | 1020.0 |
| 20260506234553 | 56 | 243 | 6.0 | 16.0 | 0.00 | 0.00 | 0.00 | 79 | 1019.9 |
| 20260506234049 | 56 | 220 | 10.0 | 16.0 | 0.00 | 0.00 | 0.00 | 79 | 1020.0 |
| 20260506233549 | 56 | 260 | 6.0 | 15.0 | 0.00 | 0.00 | 0.00 | 79 | 1019.9 |
| 20260506233052 | 56 | 237 | 7.0 | 15.0 | 0.00 | 0.00 | 0.00 | 79 | 1020.0 |
| 20260506232548 | 56 | 270 | 9.0 | 15.0 | 0.00 | 0.00 | 0.00 | 79 | 1020.0 |
| 20260506232049 | 56 | 210 | 9.0 | 16.0 | 0.00 | 0.00 | 0.00 | 79 | 1020.0 |
| 20260506231551 | 56 | 243 | 10.0 | 16.0 | 0.00 | 0.00 | 0.00 | 78 | 1020.1 |
| 20260506231052 | 56 | 221 | 9.0 | 16.0 | 0.00 | 0.00 | 0.00 | 79 | 1020.1 |
| 20260506230552 | 56 | 258 | 10.0 | 16.0 | 0.00 | 0.00 | 0.00 | 78 | 1020.1 |
| 20260506230100 | 56 | 249 | 8.0 | 15.0 | 0.00 | 0.00 | 0.00 | 78 | 1020.1 |
| 20260506225549 | 56 | 249 | 8.0 | 15.0 | 0.00 | 0.00 | 0.00 | 78 | 1020.0 |
| 20260506225049 | 56 | 246 | 8.0 | 15.0 | 0.00 | 0.00 | 0.00 | 78 | 1020.1 |
| 20260506224556 | 56 | 235 | 7.0 | 15.0 | 0.00 | 0.00 | 0.00 | 78 | 1020.1 |
| 20260506224049 | 56 | 207 | 8.0 | 15.0 | 0.00 | 0.00 | 0.00 | 78 | 1020.1 |
| 20260506223548 | 57 | 225 | 8.0 | 14.0 | 0.00 | 0.00 | 0.00 | 77 | 1020.1 |
| 20260506223054 | 56 | 213 | 8.0 | 14.0 | 0.00 | 0.00 | 0.00 | 78 | 1020.2 |
| 20260506222548 | 57 | 243 | 7.0 | 13.0 | 0.00 | 0.00 | 0.00 | 78 | 1020.2 |
| 20260506222048 | 56 | 241 | 8.0 | 13.0 | 0.00 | 0.00 | 0.00 | 78 | 1020.2 |
| 20260506221553 | 56 | 236 | 6.0 | 12.0 | 0.00 | 0.00 | 0.00 | 79 | 1020.3 |
| 20260506221049 | 56 | 180 | 7.0 | 13.0 | 0.00 | 0.00 | 0.00 | 78 | 1020.3 |
| 20260506220549 | 56 | 234 | 5.0 | 13.0 | 0.00 | 0.00 | 0.00 | 79 | 1020.4 |
| 20260506220053 | 56 | 199 | 7.0 | 15.0 | 0.00 | 0.00 | 0.00 | 77 | 1020.2 |
| 20260506215552 | 56 | 287 | 6.0 | 15.0 | 0.00 | 0.00 | 0.00 | 78 | 1020.3 |
| 20260506215048 | 56 | 258 | 8.0 | 13.0 | 0.00 | 0.00 | 0.00 | 78 | 1020.2 |
| 20260506214551 | 56 | 243 | 6.0 | 11.0 | 0.00 | 0.00 | 0.00 | 79 | 1020.4 |
| 20260506214049 | 56 | 262 | 4.0 | 10.0 | 0.00 | 0.00 | 0.00 | 78 | 1020.4 |
| 20260506213548 | 56 | 218 | 5.0 | 10.0 | 0.00 | 0.00 | 0.00 | 79 | 1020.4 |
| 20260506213056 | 56 | 237 | 4.0 | 11.0 | 0.00 | 0.00 | 0.00 | 79 | 1020.4 |
| 20260506212551 | 56 | 251 | 5.0 | 11.0 | 0.00 | 0.00 | 0.00 | 78 | 1020.4 |
| 20260506212051 | 56 | 249 | 7.0 | 14.0 | 0.00 | 0.00 | 0.00 | 79 | 1020.4 |
| 20260506211555 | 56 | 251 | 8.0 | 17.0 | 0.00 | 0.00 | 0.00 | 79 | 1020.5 |
| 20260506211049 | 55 | 280 | 8.0 | 17.0 | 0.00 | 0.00 | 0.00 | 79 | 1020.4 |
| 20260506210549 | 56 | 199 | 9.0 | 14.0 | 0.00 | 0.00 | 0.00 | 79 | 1020.4 |
| 20260506210057 | 56 | 239 | 7.0 | 12.0 | 0.00 | 0.00 | 0.00 | 79 | 1020.4 |
| 20260506205549 | 56 | 233 | 8.0 | 12.0 | 0.00 | 0.00 | 0.00 | 79 | 1020.3 |
| 20260506205049 | 56 | 240 | 5.0 | 13.0 | 0.00 | 0.00 | 0.00 | 79 | 1020.3 |
| 20260506204559 | 56 | 257 | 5.0 | 13.0 | 0.00 | 0.00 | 0.00 | 79 | 1020.3 |
| 20260506204048 | 55 | 244 | 8.0 | 12.0 | 0.00 | 0.00 | 0.00 | 79 | 1020.3 |
| 20260506203548 | 56 | 245 | 6.0 | 13.0 | 0.00 | 0.00 | 0.00 | 79 | 1020.2 |
| 20260506203056 | 55 | 260 | 7.0 | 13.0 | 0.00 | 0.00 | 0.00 | 79 | 1020.3 |
| 20260506202549 | 56 | 222 | 5.0 | 10.0 | 0.00 | 0.00 | 0.00 | 80 | 1020.2 |
| 20260506202049 | 56 | 235 | 6.0 | 10.0 | 0.00 | 0.00 | 0.00 | 80 | 1020.2 |
| 20260506201630 | 56 | 209 | 4.0 | 9.0 | 0.00 | 0.00 | 0.00 | 80 | 1020.2 |
| 20260506201048 | 56 | 217 | 5.0 | 9.0 | 0.00 | 0.00 | 0.00 | 80 | 1020.2 |
| 20260506200548 | 56 | 211 | 5.0 | 9.0 | 0.00 | 0.00 | 0.00 | 80 | 1020.1 |
| 20260506200052 | 55 | 238 | 3.0 | 6.0 | 0.00 | 0.00 | 0.00 | 80 | 1020.1 |
| 20260506195549 | 55 | 243 | 4.0 | 9.0 | 0.00 | 0.00 | 0.00 | 80 | 1020.1 |
| 20260506195052 | 55 | 231 | 4.0 | 9.0 | 0.00 | 0.00 | 0.00 | 80 | 1020.0 |
| 20260506194600 | 55 | 246 | 4.0 | 12.0 | 0.00 | 0.00 | 0.00 | 81 | 1020.1 |
| 20260506194048 | 55 | 216 | 4.0 | 12.0 | 0.00 | 0.00 | 0.00 | 80 | 1020.0 |
| 20260506193550 | 55 | 221 | 5.0 | 11.0 | 0.00 | 0.00 | 0.00 | 81 | 1020.0 |
| 20260506192548 | 55 | 185 | 7.0 | 11.0 | 0.00 | 0.00 | 0.00 | 81 | 1020.0 |
| 20260506192048 | 55 | 190 | 5.0 | 11.0 | 0.00 | 0.00 | 0.00 | 81 | 1019.9 |
| 20260506191601 | 55 | 214 | 6.0 | 11.0 | 0.00 | 0.00 | 0.00 | 81 | 1019.9 |
| 20260506191049 | 55 | 195 | 8.0 | 11.0 | 0.00 | 0.00 | 0.00 | 82 | 1019.9 |
| 20260506190550 | 55 | 212 | 4.0 | 8.0 | 0.00 | 0.00 | 0.00 | 83 | 1019.9 |
| 20260506190058 | 54 | 193 | 3.0 | 8.0 | 0.00 | 0.00 | 0.00 | 84 | 1019.9 |
| 20260506185548 | 55 | 180 | 3.0 | 8.0 | 0.00 | 0.00 | 0.00 | 85 | 1020.0 |
| 20260506185049 | 54 | 198 | 5.0 | 8.0 | 0.00 | 0.00 | 0.00 | 85 | 1019.9 |
| 20260506184603 | 54 | 207 | 4.0 | 8.0 | 0.00 | 0.00 | 0.00 | 85 | 1020.0 |
| 20260506184049 | 54 | 197 | 4.0 | 9.0 | 0.00 | 0.00 | 0.00 | 85 | 1020.0 |
| 20260506183549 | 54 | 244 | 3.0 | 9.0 | 0.00 | 0.00 | 0.00 | 86 | 1020.0 |
| 20260506183054 | 54 | 214 | 4.0 | 9.0 | 0.00 | 0.00 | 0.00 | 86 | 1019.9 |
| 20260506182551 | 54 | 251 | 4.0 | 11.0 | 0.00 | 0.00 | 0.00 | 86 | 1020.0 |
| 20260506182049 | 54 | 252 | 5.0 | 11.0 | 0.00 | 0.00 | 0.00 | 86 | 1020.1 |
| 20260506181601 | 54 | 230 | 3.0 | 8.0 | 0.00 | 0.00 | 0.00 | 87 | 1020.0 |
| 20260506181049 | 54 | 250 | 5.0 | 9.0 | 0.00 | 0.00 | 0.00 | 87 | 1019.8 |
| 20260506180549 | 54 | 151 | 3.0 | 11.0 | 0.00 | 0.00 | 0.00 | 89 | 1019.7 |
| 20260506180058 | 53 | 189 | 5.0 | 11.0 | 0.00 | 0.00 | 0.00 | 89 | 1019.6 |
| 20260506175550 | 53 | 242 | 7.0 | 11.0 | 0.00 | 0.00 | 0.00 | 89 | 1019.7 |
| 20260506175051 | 53 | 214 | 6.0 | 10.0 | 0.00 | 0.00 | 0.00 | 89 | 1019.8 |
| 20260506174555 | 53 | 224 | 5.0 | 10.0 | 0.00 | 0.00 | 0.00 | 89 | 1019.7 |
| 20260506174049 | 53 | 199 | 4.0 | 8.0 | 0.00 | 0.00 | 0.00 | 90 | 1019.7 |
| 20260506173549 | 53 | 250 | 3.0 | 9.0 | 0.00 | 0.00 | 0.00 | 90 | 1019.8 |
| 20260506173113 | 53 | 237 | 5.0 | 9.0 | 0.00 | 0.00 | 0.00 | 90 | 1019.8 |
| 20260506172549 | 53 | 216 | 5.0 | 9.0 | 0.00 | 0.00 | 0.00 | 90 | 1019.8 |
| 20260506172050 | 53 | 211 | 3.0 | 10.0 | 0.00 | 0.00 | 0.00 | 90 | 1019.8 |
| 20260506171556 | 53 | 256 | 6.0 | 10.0 | 0.00 | 0.00 | 0.00 | 90 | 1019.8 |
| 20260506171049 | 53 | 206 | 6.0 | 11.0 | 0.00 | 0.00 | 0.00 | 90 | 1019.8 |
| 20260506170550 | 53 | 214 | 6.0 | 11.0 | 0.00 | 0.00 | 0.00 | 91 | 1019.8 |
| 20260506170056 | 52 | 237 | 6.0 | 11.0 | 0.00 | 0.00 | 0.00 | 91 | 1019.8 |
| 20260506165549 | 52 | 226 | 7.0 | 10.0 | 0.00 | 0.00 | 0.00 | 91 | 1019.7 |
| 20260506165049 | 52 | 239 | 5.0 | 11.0 | 0.00 | 0.00 | 0.00 | 92 | 1019.7 |
| 20260506164549 | 52 | 229 | 6.0 | 12.0 | 0.00 | 0.00 | 0.00 | 92 | 1019.6 |
| 20260506164049 | 52 | 226 | 7.0 | 12.0 | 0.00 | 0.00 | 0.00 | 92 | 1019.6 |
| 20260506163550 | 52 | 206 | 6.0 | 13.0 | 0.00 | 0.00 | 0.00 | 93 | 1019.5 |
| 20260506163113 | 52 | 216 | 6.0 | 13.0 | 0.00 | 0.00 | 0.00 | 93 | 1019.4 |
| 20260506162549 | 52 | 198 | 6.0 | 11.0 | 0.00 | 0.00 | 0.00 | 93 | 1019.3 |
| 20260506162049 | 52 | 175 | 7.0 | 12.0 | 0.00 | 0.00 | 0.00 | 93 | 1019.2 |
| 20260506161559 | 52 | 222 | 7.0 | 12.0 | 0.00 | 0.00 | 0.00 | 93 | 1019.2 |
| 20260506161049 | 51 | 214 | 7.0 | 10.0 | 0.00 | 0.00 | 0.00 | 93 | 1019.1 |
| 20260506160549 | 51 | 172 | 6.0 | 10.0 | 0.00 | 0.00 | 0.00 | 93 | 1019.2 |
| 20260506160056 | 52 | 185 | 3.0 | 9.0 | 0.00 | 0.00 | 0.00 | 93 | 1019.2 |
| 20260506155548 | 51 | 190 | 5.0 | 9.0 | 0.00 | 0.00 | 0.00 | 93 | 1019.3 |
| 20260506155049 | 51 | 219 | 5.0 | 9.0 | 0.00 | 0.00 | 0.00 | 93 | 1019.3 |
| 20260506154600 | 51 | 234 | 5.0 | 9.0 | 0.00 | 0.00 | 0.00 | 93 | 1019.5 |
| 20260506154049 | 51 | 224 | 4.0 | 8.0 | 0.00 | 0.00 | 0.00 | 93 | 1019.5 |
| 20260506153549 | 51 | 252 | 4.0 | 9.0 | 0.00 | 0.00 | 0.00 | 93 | 1019.6 |
| 20260506153053 | 51 | 235 | 4.0 | 9.0 | 0.00 | 0.00 | 0.00 | 93 | 1019.4 |
| 20260506152549 | 51 | 206 | 4.0 | 8.0 | 0.00 | 0.00 | 0.00 | 93 | 1019.4 |
| 20260506152052 | 51 | 258 | 4.0 | 8.0 | 0.00 | 0.00 | 0.00 | 93 | 1019.4 |
| 20260506151555 | 51 | 203 | 4.0 | 8.0 | 0.00 | 0.00 | 0.00 | 93 | 1019.4 |
| 20260506151049 | 51 | 212 | 5.0 | 8.0 | 0.00 | 0.00 | 0.00 | 93 | 1019.2 |
| 20260506150549 | 51 | 217 | 4.0 | 10.0 | 0.00 | 0.00 | 0.00 | 93 | 1019.1 |
| 20260506150053 | 51 | 205 | 3.0 | 10.0 | 0.00 | 0.00 | 0.00 | 93 | 1019.3 |
| 20260506145551 | 51 | 208 | 4.0 | 9.0 | 0.00 | 0.00 | 0.00 | 93 | 1019.4 |
| 20260506145048 | 51 | 220 | 4.0 | 9.0 | 0.00 | 0.00 | 0.00 | 93 | 1019.3 |
| 20260506144554 | 51 | 237 | 5.0 | 8.0 | 0.00 | 0.00 | 0.00 | 92 | 1019.4 |
| 20260506144049 | 51 | 244 | 4.0 | 8.0 | 0.00 | 0.00 | 0.00 | 93 | 1019.4 |
| 20260506143550 | 51 | 260 | 4.0 | 9.0 | 0.00 | 0.00 | 0.00 | 92 | 1019.3 |
| 20260506143052 | 51 | 231 | 5.0 | 9.0 | 0.00 | 0.00 | 0.00 | 92 | 1019.2 |
| 20260506142549 | 51 | 250 | 3.0 | 10.0 | 0.00 | 0.00 | 0.00 | 92 | 1019.2 |
| 20260506142049 | 51 | 243 | 3.0 | 10.0 | 0.00 | 0.00 | 0.00 | 92 | 1019.0 |
| 20260506141556 | 51 | 235 | 6.0 | 9.0 | 0.00 | 0.00 | 0.00 | 92 | 1018.9 |
| 20260506141050 | 52 | 201 | 4.0 | 7.0 | 0.00 | 0.00 | 0.00 | 92 | 1018.9 |
| 20260506140549 | 52 | 202 | 4.0 | 7.0 | 0.00 | 0.00 | 0.00 | 92 | 1019.1 |
| 20260506140100 | 52 | 239 | 4.0 | 9.0 | 0.00 | 0.00 | 0.00 | 92 | 1019.1 |
| 20260506135549 | 52 | 200 | 4.0 | 9.0 | 0.00 | 0.00 | 0.00 | 91 | 1019.1 |
| 20260506135049 | 52 | 231 | 4.0 | 9.0 | 0.00 | 0.00 | 0.00 | 91 | 1019.1 |
| 20260506134550 | 52 | 209 | 4.0 | 12.0 | 0.00 | 0.00 | 0.00 | 91 | 1018.9 |
| 20260506134049 | 52 | 225 | 4.0 | 12.0 | 0.00 | 0.00 | 0.00 | 91 | 1018.9 |
| 20260506133549 | 52 | 244 | 4.0 | 9.0 | 0.00 | 0.00 | 0.00 | 91 | 1019.1 |
| 20260506133102 | 52 | 235 | 5.0 | 9.0 | 0.00 | 0.00 | 0.00 | 91 | 1018.9 |
| 20260506132549 | 52 | 194 | 4.0 | 9.0 | 0.00 | 0.00 | 0.00 | 91 | 1018.8 |
| 20260506132051 | 52 | 245 | 3.0 | 9.0 | 0.00 | 0.00 | 0.00 | 91 | 1018.9 |
| 20260506131557 | 52 | 222 | 4.0 | 9.0 | 0.00 | 0.00 | 0.00 | 91 | 1018.8 |
| 20260506131049 | 52 | 260 | 5.0 | 9.0 | 0.00 | 0.00 | 0.00 | 91 | 1018.5 |
| 20260506130549 | 52 | 160 | 4.0 | 8.0 | 0.00 | 0.00 | 0.00 | 91 | 1018.4 |
| 20260506130053 | 52 | 212 | 3.0 | 6.0 | 0.00 | 0.00 | 0.00 | 91 | 1018.6 |
| 20260506125548 | 52 | 228 | 3.0 | 8.0 | 0.00 | 0.00 | 0.00 | 91 | 1018.5 |
| 20260506125049 | 52 | 224 | 3.0 | 8.0 | 0.00 | 0.00 | 0.00 | 91 | 1018.4 |
| 20260506124554 | 52 | 226 | 4.0 | 8.0 | 0.00 | 0.00 | 0.00 | 91 | 1018.5 |
| 20260506124048 | 52 | 238 | 4.0 | 8.0 | 0.00 | 0.00 | 0.00 | 91 | 1018.4 |
| 20260506123549 | 52 | 226 | 4.0 | 7.0 | 0.00 | 0.00 | 0.00 | 91 | 1018.3 |
| 20260506123052 | 52 | 226 | 4.0 | 10.0 | 0.00 | 0.00 | 0.00 | 91 | 1018.3 |
| 20260506122549 | 52 | 235 | 5.0 | 10.0 | 0.00 | 0.00 | 0.00 | 91 | 1018.4 |
| 20260506122049 | 52 | 240 | 4.0 | 9.0 | 0.00 | 0.00 | 0.00 | 91 | 1018.3 |
| 20260506121549 | 52 | 215 | 3.0 | 9.0 | 0.00 | 0.00 | 0.00 | 91 | 1018.3 |
| 20260506121049 | 52 | 245 | 4.0 | 9.0 | 0.00 | 0.00 | 0.00 | 91 | 1018.2 |
| 20260506120549 | 52 | 224 | 6.0 | 10.0 | 0.00 | 0.00 | 0.00 | 91 | 1018.2 |
| 20260506120107 | 52 | 206 | 5.0 | 10.0 | 0.00 | 0.00 | 0.00 | 91 | 1018.3 |
| 20260506115549 | 52 | 208 | 5.0 | 9.0 | 0.00 | 0.00 | 0.00 | 90 | 1018.2 |
| 20260506115048 | 52 | 189 | 5.0 | 9.0 | 0.00 | 0.00 | 0.00 | 90 | 1018.2 |
| 20260506114606 | 52 | 197 | 5.0 | 11.0 | 0.00 | 0.00 | 0.00 | 90 | 1018.0 |
| 20260506114048 | 52 | 201 | 4.0 | 11.0 | 0.00 | 0.00 | 0.00 | 90 | 1018.0 |
| 20260506113549 | 52 | 210 | 7.0 | 11.0 | 0.00 | 0.00 | 0.00 | 90 | 1018.0 |
| 20260506113053 | 52 | 244 | 4.0 | 10.0 | 0.00 | 0.00 | 0.00 | 90 | 1018.0 |
| 20260506112550 | 52 | 218 | 4.0 | 10.0 | 0.00 | 0.00 | 0.00 | 90 | 1018.0 |
| 20260506112049 | 52 | 207 | 4.0 | 10.0 | 0.00 | 0.00 | 0.00 | 90 | 1018.0 |
| 20260506111555 | 52 | 243 | 3.0 | 10.0 | 0.00 | 0.00 | 0.00 | 90 | 1018.0 |
| 20260506111049 | 52 | 238 | 5.0 | 10.0 | 0.00 | 0.00 | 0.00 | 90 | 1018.0 |
| 20260506110549 | 52 | 185 | 4.0 | 10.0 | 0.00 | 0.00 | 0.00 | 89 | 1018.0 |
| 20260506110054 | 52 | 234 | 4.0 | 9.0 | 0.00 | 0.00 | 0.00 | 89 | 1017.9 |
| 20260506105551 | 52 | 199 | 4.0 | 7.0 | 0.00 | 0.00 | 0.00 | 89 | 1017.9 |
| 20260506105049 | 52 | 224 | 4.0 | 7.0 | 0.00 | 0.00 | 0.00 | 89 | 1017.8 |
| 20260506104551 | 52 | 212 | 3.0 | 7.0 | 0.00 | 0.00 | 0.00 | 89 | 1017.8 |
| 20260506104049 | 52 | 189 | 2.0 | 8.0 | 0.00 | 0.00 | 0.00 | 89 | 1017.8 |
| 20260506103548 | 52 | 224 | 3.0 | 9.0 | 0.00 | 0.00 | 0.00 | 89 | 1017.7 |
| 20260506103057 | 52 | 253 | 4.0 | 9.0 | 0.00 | 0.00 | 0.00 | 89 | 1017.7 |
| 20260506102549 | 52 | 227 | 4.0 | 9.0 | 0.00 | 0.00 | 0.00 | 89 | 1017.8 |
| 20260506102049 | 52 | 213 | 4.0 | 8.0 | 0.00 | 0.00 | 0.00 | 89 | 1017.7 |
| 20260506101553 | 52 | 233 | 3.0 | 6.0 | 0.00 | 0.00 | 0.00 | 89 | 1017.6 |
| 20260506101049 | 52 | 218 | 3.0 | 6.0 | 0.00 | 0.00 | 0.00 | 89 | 1017.6 |
| 20260506100549 | 52 | 243 | 3.0 | 7.0 | 0.00 | 0.00 | 0.00 | 89 | 1017.5 |
| 20260506100053 | 52 | 224 | 3.0 | 7.0 | 0.00 | 0.00 | 0.00 | 89 | 1017.5 |
| 20260506095549 | 52 | 226 | 4.0 | 8.0 | 0.00 | 0.00 | 0.00 | 89 | 1017.5 |
| 20260506095049 | 52 | 215 | 4.0 | 10.0 | 0.00 | 0.00 | 0.00 | 89 | 1017.4 |
| 20260506094554 | 52 | 243 | 6.0 | 10.0 | 0.00 | 0.00 | 0.00 | 89 | 1017.3 |
| 20260506094049 | 52 | 241 | 6.0 | 11.0 | 0.00 | 0.00 | 0.00 | 89 | 1017.3 |
| 20260506093549 | 52 | 233 | 6.0 | 13.0 | 0.00 | 0.00 | 0.00 | 89 | 1017.3 |
| 20260506093108 | 52 | 228 | 9.0 | 13.0 | 0.00 | 0.00 | 0.00 | 89 | 1017.4 |
| 20260506092549 | 52 | 248 | 8.0 | 13.0 | 0.00 | 0.00 | 0.00 | 89 | 1017.4 |
| 20260506092049 | 52 | 247 | 6.0 | 11.0 | 0.00 | 0.00 | 0.00 | 89 | 1017.2 |
| 20260506091554 | 52 | 204 | 6.0 | 10.0 | 0.00 | 0.00 | 0.00 | 89 | 1017.2 |
| 20260506091049 | 52 | 222 | 7.0 | 10.0 | 0.00 | 0.00 | 0.00 | 89 | 1017.1 |
| 20260506090548 | 52 | 221 | 5.0 | 10.0 | 0.00 | 0.00 | 0.00 | 89 | 1017.1 |
| 20260506090056 | 52 | 218 | 5.0 | 10.0 | 0.00 | 0.00 | 0.00 | 89 | 1017.1 |
| 20260506085549 | 52 | 201 | 5.0 | 10.0 | 0.00 | 0.00 | 0.00 | 89 | 1017.0 |
| 20260506085049 | 52 | 240 | 4.0 | 10.0 | 0.00 | 0.00 | 0.00 | 89 | 1016.9 |
| 20260506084556 | 52 | 234 | 6.0 | 10.0 | 0.00 | 0.00 | 0.00 | 89 | 1016.9 |
| 20260506084049 | 52 | 205 | 5.0 | 11.0 | 0.00 | 0.00 | 0.00 | 89 | 1016.9 |
| 20260506083549 | 52 | 231 | 5.0 | 12.0 | 0.00 | 0.00 | 0.00 | 89 | 1016.8 |
| 20260506083101 | 52 | 233 | 6.0 | 14.0 | 0.00 | 0.00 | 0.00 | 89 | 1016.8 |
| 20260506082548 | 52 | 218 | 8.0 | 14.0 | 0.00 | 0.00 | 0.00 | 89 | 1016.8 |
| 20260506082048 | 52 | 199 | 7.0 | 14.0 | 0.00 | 0.00 | 0.00 | 89 | 1016.8 |
| 20260506081551 | 52 | 224 | 7.0 | 14.0 | 0.00 | 0.00 | 0.00 | 89 | 1016.8 |
| 20260506081048 | 52 | 202 | 6.0 | 11.0 | 0.00 | 0.00 | 0.00 | 89 | 1016.8 |
| 20260506080547 | 52 | 191 | 4.0 | 10.0 | 0.00 | 0.00 | 0.00 | 89 | 1016.7 |
| 20260506073102 | 52 | 195 | 2.0 | 5.0 | 0.00 | 0.00 | 0.00 | 88 | 1016.5 |
| 20260506072549 | 52 | 206 | 3.0 | 7.0 | 0.00 | 0.00 | 0.00 | 88 | 1016.6 |
| 20260506072054 | 53 | 202 | 3.0 | 7.0 | 0.00 | 0.00 | 0.00 | 88 | 1016.5 |
| 20260506071549 | 53 | 197 | 3.0 | 9.0 | 0.00 | 0.00 | 0.00 | 87 | 1016.4 |
| 20260506071048 | 53 | 196 | 3.0 | 9.0 | 0.00 | 0.00 | 0.00 | 87 | 1016.4 |
| 20260506070549 | 53 | 206 | 3.0 | 8.0 | 0.00 | 0.00 | 0.00 | 87 | 1016.4 |
| 20260506062048 | 54 | 202 | 4.0 | 9.0 | 0.00 | 0.00 | 0.00 | 86 | 1016.1 |
| 20260506061600 | 54 | 185 | 3.0 | 9.0 | 0.00 | 0.00 | 0.00 | 86 | 1016.0 |
| 20260506061047 | 55 | 200 | 5.0 | 9.0 | 0.00 | 0.00 | 0.00 | 86 | 1015.9 |
| 20260506060550 | 55 | 231 | 3.0 | 7.0 | 0.00 | 0.00 | 0.00 | 85 | 1015.9 |